Berthoud Pass, CO

11:45 AM MDT on October 16, 2019 (GMT -0600)
Berthoud Pass

Weather History for K0CO - September, 2019

Change the Weather History Date:

Monday, September 16, 2019

  Actual Average (KBJC) Record (KBJC)
Temperature  
Mean Temperature 42 °F -  
Max Temperature 48 °F 73 °F 98 °F (2000)
Min Temperature 37 °F 50 °F 36 °F (1987)
Degree Days  
Heating Degree Days 22    
Moisture  
Dew Point 28 °F    
Average Humidity 57    
Maximum Humidity 57    
Minimum Humidity 53    
Precipitation  
Precipitation 0.00 in - - ()
Sea Level Pressure  
Sea Level Pressure 30.52 in    
Wind  
Wind Speed 8 mph (North)    
Max Wind Speed 12 mph    
Max Gust Speed 20 mph    
Visibility 10 miles    
Events Thunderstorm    
Averages and records for this station are not official NWS values.
T = Trace of Precipitation, MM = Missing Value Source: NWS Daily Summary

Daily Weather History Graph

Daily Weather History Graph

Search for Another Location

Airport or City:

Astronomy

Sep. 16, 2019 Rise Set
Actual Time 6:44 AM MDT 7:10 PM MDT
Civil Twilight 6:17 AM MDT 7:37 PM MDT
Nautical Twilight 5:45 AM MDT 8:09 PM MDT
Astronomical Twilight 5:13 AM MDT 8:41 PM MDT
Moon 8:46 PM MDT 8:54 AM MDT
Length of Visible Light 13h 19m
Length of Day
12h 25m
Waning Gibbous, 94% of the Moon is Illuminated
Sep 16
Waning Gibbous
Sep 21
Last Quarter
Sep 28
New
Oct 5
First Quarter
Oct 13
Full

Hourly Weather History & Observations

Time (MDT) Temp. Windchill Dew Point Humidity Pressure Visibility Wind Dir Wind Speed Gust Speed Precip Events Conditions
12:12 AM 41.0 °F 35.8 °F 26.6 °F 57% 30.56 in 10.0 mi North 8.1 mph - N/A   Scattered Clouds
12:36 AM 42.8 °F 37.5 °F 28.4 °F 57% 30.56 in 10.0 mi North 9.2 mph - N/A   Clear
12:54 AM 41.0 °F 35.2 °F 26.6 °F 57% 30.55 in 10.0 mi North 9.2 mph - N/A   Scattered Clouds
1:12 AM 41.0 °F 35.2 °F 26.6 °F 57% 30.55 in 10.0 mi North 9.2 mph - N/A   Scattered Clouds
1:36 AM 41.0 °F 35.2 °F 26.6 °F 57% 30.55 in 10.0 mi North 9.2 mph - N/A   Scattered Clouds
1:54 AM 41.0 °F 35.8 °F 26.6 °F 57% 30.55 in 10.0 mi NW 8.1 mph 16.1 mph N/A   Clear
2:12 AM 41.0 °F 35.2 °F 26.6 °F 57% 30.55 in 10.0 mi NNW 9.2 mph - N/A   Scattered Clouds
2:32 AM 41.0 °F 35.8 °F 26.6 °F 57% 30.55 in 10.0 mi NNW 8.1 mph - N/A   Scattered Clouds
2:55 AM 41.0 °F 35.2 °F 26.6 °F 57% 30.55 in 10.0 mi NNW 9.2 mph 16.1 mph N/A   Mostly Cloudy
3:12 AM 39.2 °F 33.0 °F 24.8 °F 56% 30.55 in 10.0 mi North 9.2 mph - N/A   Overcast
3:35 AM 39.2 °F 32.5 °F 24.8 °F 56% 30.53 in 10.0 mi NNW 10.4 mph 17.3 mph N/A   Mostly Cloudy
3:53 AM 39.2 °F 33.6 °F 24.8 °F 56% 30.53 in 10.0 mi NNW 8.1 mph - N/A   Overcast
4:12 AM 39.2 °F 33.0 °F 24.8 °F 56% 30.53 in 10.0 mi NNW 9.2 mph - N/A   Overcast
4:36 AM 39.2 °F 33.0 °F 24.8 °F 56% 30.52 in 10.0 mi NNW 9.2 mph - N/A   Overcast
4:53 AM 39.2 °F 33.0 °F 24.8 °F 56% 30.52 in 10.0 mi NNW 9.2 mph - N/A   Overcast
5:12 AM 39.2 °F 33.6 °F 24.8 °F 56% 30.52 in 10.0 mi North 8.1 mph - N/A   Overcast
5:36 AM 41.0 °F 35.2 °F 26.6 °F 57% 30.51 in 10.0 mi NNW 9.2 mph - N/A   Overcast
5:52 AM 39.2 °F 33.6 °F 24.8 °F 56% 30.51 in 10.0 mi North 8.1 mph - N/A   Overcast
6:12 AM 39.2 °F 33.6 °F 24.8 °F 56% 30.51 in 10.0 mi NNW 8.1 mph - N/A   Overcast
6:36 AM 39.2 °F 34.2 °F 24.8 °F 56% 30.51 in 10.0 mi North 6.9 mph - N/A   Overcast
7:12 AM 39.2 °F 33.0 °F 24.8 °F 56% 30.52 in 10.0 mi NNW 9.2 mph - N/A   Overcast
7:36 AM 39.2 °F 33.6 °F 24.8 °F 56% 30.53 in 10.0 mi NNW 8.1 mph - N/A   Overcast
8:12 AM 39.2 °F 33.0 °F 24.8 °F 56% 30.53 in 10.0 mi NNW 9.2 mph - N/A   Mostly Cloudy
8:36 AM 37.4 °F 32.1 °F 23.0 °F 56% 30.53 in 10.0 mi NNE 6.9 mph - N/A   Scattered Clouds
8:54 AM 39.2 °F 35.9 °F 24.8 °F 56% 30.53 in 10.0 mi ENE 4.6 mph - N/A   Scattered Clouds
9:12 AM 42.8 °F 38.0 °F 28.4 °F 57% 30.53 in 10.0 mi NE 8.1 mph - N/A   Mostly Cloudy
9:35 AM 41.0 °F 35.8 °F 26.6 °F 57% 30.53 in 10.0 mi NNE 8.1 mph - N/A   Scattered Clouds
9:52 AM 41.0 °F 35.8 °F 26.6 °F 57% 30.53 in 10.0 mi NE 8.1 mph - N/A   Mostly Cloudy
10:12 AM 42.8 °F 37.5 °F 28.4 °F 57% 30.54 in 10.0 mi North 9.2 mph - N/A   Overcast
10:36 AM 42.8 °F 38.6 °F 28.4 °F 57% 30.54 in 10.0 mi NNW 6.9 mph - N/A   Overcast
10:54 AM 42.8 °F 38.0 °F 28.4 °F 57% 30.54 in 10.0 mi North 8.1 mph - N/A   Overcast
11:12 AM 42.8 °F 38.0 °F 28.4 °F 57% 30.54 in 10.0 mi NE 8.1 mph - N/A   Overcast
11:36 AM 44.6 °F 40.7 °F 30.2 °F 57% 30.54 in 10.0 mi North 6.9 mph - N/A   Overcast
11:54 AM 46.4 °F 42.9 °F 32.0 °F 57% 30.53 in 10.0 mi North 6.9 mph - N/A   Overcast
12:12 PM 44.6 °F 41.4 °F 30.2 °F 57% 30.53 in 10.0 mi NNE 5.8 mph - N/A   Overcast
12:36 PM 44.6 °F 41.4 °F 30.2 °F 57% 30.52 in 10.0 mi NNE 5.8 mph - N/A   Mostly Cloudy
12:54 PM 46.4 °F 44.3 °F 32.0 °F 57% 30.52 in 10.0 mi NNE 4.6 mph - N/A   Overcast
1:17 PM 46.4 °F 41.5 °F 32.0 °F 57% 30.52 in 10.0 mi North 10.4 mph 19.6 mph N/A   Overcast
1:35 PM 48.2 °F - 32.0 °F 54% 30.51 in 10.0 mi NW 10.4 mph 18.4 mph N/A   Mostly Cloudy
1:52 PM 46.4 °F 41.1 °F 32.0 °F 57% 30.51 in 10.0 mi NW 11.5 mph 19.6 mph N/A   Mostly Cloudy
2:12 PM 46.4 °F 41.1 °F 32.0 °F 57% 30.50 in 10.0 mi NW 11.5 mph 19.6 mph N/A   Overcast
2:36 PM 46.4 °F 45.2 °F 32.0 °F 57% 30.51 in 10.0 mi NE 3.5 mph - N/A   Overcast
2:54 PM 48.2 °F - 32.0 °F 54% 30.51 in 10.0 mi NNE 4.6 mph - N/A   Overcast
3:12 PM 46.4 °F 42.4 °F 32.0 °F 57% 30.50 in 10.0 mi North 8.1 mph - N/A   Overcast
3:35 PM 46.4 °F 45.2 °F 32.0 °F 57% 30.50 in 10.0 mi NNE 3.5 mph - N/A   Overcast
3:53 PM 46.4 °F 45.2 °F 32.0 °F 57% 30.51 in 10.0 mi NE 3.5 mph - N/A   Overcast
4:11 PM 46.4 °F 43.5 °F 32.0 °F 57% 30.50 in 10.0 mi North 5.8 mph - N/A   Overcast
4:34 PM 46.4 °F 45.2 °F 32.0 °F 57% 30.50 in 10.0 mi NE 3.5 mph - N/A   Overcast
4:52 PM 48.2 °F - 32.0 °F 54% 30.49 in 10.0 mi North 5.8 mph - N/A   Overcast
5:12 PM 46.4 °F 42.4 °F 32.0 °F 57% 30.49 in 10.0 mi North 8.1 mph - N/A   Mostly Cloudy
5:36 PM 46.4 °F 42.9 °F 32.0 °F 57% 30.49 in 10.0 mi ENE 6.9 mph - N/A   Mostly Cloudy
6:32 PM 44.6 °F 43.1 °F 30.2 °F 57% 30.50 in 10.0 mi NNE 3.5 mph - N/A   Overcast
6:56 PM 44.6 °F 41.4 °F 30.2 °F 57% 30.50 in 10.0 mi ENE 5.8 mph - N/A   Overcast
7:12 PM 44.6 °F - 30.2 °F 57% 30.49 in 10.0 mi Calm Calm - N/A   Overcast
7:36 PM 44.6 °F 43.1 °F 30.2 °F 57% 30.50 in 10.0 mi East 3.5 mph - N/A   Overcast
7:54 PM 44.6 °F 40.2 °F 30.2 °F 57% 30.49 in 10.0 mi East 8.1 mph - N/A   Overcast
8:12 PM 44.6 °F 41.4 °F 28.4 °F 53% 30.50 in 10.0 mi East 5.8 mph - N/A   Overcast
8:36 PM 42.8 °F 40.1 °F 28.4 °F 57% 30.49 in 10.0 mi NNW 4.6 mph - N/A Thunderstorm Thunderstorm
8:54 PM 41.0 °F 36.4 °F 26.6 °F 57% 30.50 in 10.0 mi WNW 6.9 mph - N/A   Scattered Clouds
9:12 PM 41.0 °F - 26.6 °F 57% 30.49 in 10.0 mi North - - N/A   Clear
9:35 PM 41.0 °F 36.4 °F 26.6 °F 57% 30.50 in 10.0 mi NE 6.9 mph - N/A   Clear
9:53 PM 41.0 °F 37.1 °F 26.6 °F 57% 30.50 in 10.0 mi NNW 5.8 mph - N/A   Scattered Clouds
10:12 PM 41.0 °F 34.3 °F 26.6 °F 57% 30.50 in 10.0 mi WNW 11.5 mph - N/A   Mostly Cloudy
10:36 PM 41.0 °F 36.4 °F 26.6 °F 57% 30.49 in 10.0 mi NW 6.9 mph - N/A   Clear
10:54 PM 41.0 °F 35.2 °F 26.6 °F 57% 30.50 in 10.0 mi West 9.2 mph - N/A   Clear
11:12 PM 41.0 °F 35.8 °F 26.6 °F 57% 30.49 in 10.0 mi West 8.1 mph - N/A   Clear
11:36 PM 41.0 °F 35.2 °F 26.6 °F 57% 30.49 in 10.0 mi West 9.2 mph - N/A   Clear
11:54 PM 41.0 °F 34.3 °F 26.6 °F 57% 30.48 in 10.0 mi West 11.5 mph 17.3 mph N/A   Clear